Location: Cheyres
(46.8153°N, 6.7877°E)
Time: 01:44:53
(UTC+00:00)

Tiros 1 - Pass Details

Date: 02 June 2022
Orbit: 629 x 663 km, 48.4° (Epoch: 05 July)

Event Time Altitude Azimuth Distance (km) Brightness Sun altitude
Rises 00:26:10 0° 272° (W) 2,914 10.4 -19.9°
Reaches altitude 10° 00:28:29 10° 275° (W) 2,009 9.6 -19.8°
Maximum altitude 00:33:06 72° 359° (N) 669 7.3 -19.6°
Drops below altitude 10° 00:37:45 10° 85° (E) 2,023 10.0 -19.4°
Sets 00:40:06 0° 87° (E) 2,937 10.8 -19.3°
